Wind_Speed
64 69 70 72 73 71 74 76 71 67 63 61 58 59 62 61 58 56 54 51 49 45 44 41 40 37 33 31 30 32 28 29
69 70 71 71 67 68 61 55 57 65 76 69 63 60 61 62 62 58 57 55 50 49 47 42 42 41 39 34 34 31 29 28
68 71 71 69 70 69 64 55 48 51 54 69 74 68 61 61 61 63 62 59 57 49 48 46 42 39 40 38 36 32 31 31
68 67 67 68 70 71 70 66 69 64 53 52 56 70 71 70 65 64 64 64 63 59 53 51 49 41 42 39 37 36 34 34
74 73 69 68 67 67 70 70 63 62 65 61 51 54 63 70 75 72 70 70 68 65 60 56 52 54 49 44 43 40 38 37
81 80 77 76 71 69 68 68 66 59 64 62 60 53 54 62 69 74 70 68 69 69 68 63 59 57 56 50 48 43 42 38
83 77 76 74 71 66 63 62 60 63 54 58 62 65 59 58 64 72 75 71 67 66 67 64 58 55 57 54 49 48 44 40
88 83 77 73 69 67 62 64 60 61 63 53 52 54 65 61 59 62 70 75 76 73 67 66 62 57 58 57 54 51 49 47
93 86 82 76 74 67 69 66 63 64 64 55 51 50 51 60 67 63 60 65 71 77 76 74 69 65 61 57 56 54 53 52
100 90 86 81 79 79 75 70 73 68 66 68 62 57 57 58 63 70 66 62 65 68 75 75 70 65 65 62 60 57 53 53
101 94 89 87 86 86 82 78 78 77 74 71 69 67 64 60 60 67 74 72 67 65 68 73 74 69 63 62 62 59 58 56
100 96 94 91 89 90 89 88 86 84 85 82 79 75 71 70 65 66 70 77 77 69 66 68 72 78 73 68 67 64 61 58
97 95 96 96 94 93 93 96 95 92 91 89 84 80 76 73 72 71 72 74 78 82 75 71 70 74 77 74 72 67 65 60
98 97 91 96 98 99 99 100 99 92 89 88 85 84 79 77 74 72 75 76 77 80 82 76 73 73 74 76 78 73 69 62
90 92 91 92 94 99 103 102 102 101 94 92 88 85 85 83 78 75 74 76 77 80 80 82 77 76 75 78 78 80 79 77
86 81 77 79 89 98 102 106 106 104 101 95 93 89 86 86 84 81 78 78 79 79 79 82 84 81 79 80 82 81 80 79
66 73 71 71 78 89 100 103 106 103 104 102 98 95 91 88 86 83 82 82 83 85 82 81 84 87 86 84 83 82 81 79
49 54 57 60 69 79 88 97 102 104 104 105 105 101 98 94 89 90 86 84 85 87 89 85 83 89 92 90 87 81 86 84
32 38 44 50 57 64 71 84 96 104 106 104 104 101 98 93 90 86 83 84 85 88 91 90 89 87 95 96 94 88 84 87
Wind_Direction
234 232 230 232 229 229 238 244 248 245 244 244 243 240 241 238 240 241 239 242 244 246 250 253 254 259 262 259 269 271 273 275
236 237 237 235 235 231 230 235 242 247 245 244 243 241 239 240 236 240 241 241 242 245 247 251 253 255 259 253 265 265 269 269
236 235 237 238 240 237 236 229 239 235 234 242 243 242 243 243 241 239 241 242 241 242 247 247 249 252 253 252 257 257 265 264
231 235 233 233 235 236 234 229 231 234 230 234 236 243 240 243 243 243 242 242 242 239 242 247 248 241 245 251 248 251 260 260
224 228 233 233 233 234 235 232 226 234 237 235 231 234 240 241 242 243 243 242 241 242 241 243 247 248 242 245 247 249 256 259
227 226 227 230 230 229 232 231 230 230 237 235 230 229 236 242 242 241 242 241 242 243 245 247 245 248 249 245 245 244 250 257
232 232 233 234 234 236 236 233 230 231 234 240 237 233 233 237 241 244 245 242 242 242 242 244 245 245 246 246 243 244 243 248
234 234 233 235 234 233 233 237 238 235 234 238 245 243 237 237 239 241 242 242 243 241 243 245 246 240 239 241 243 245 245 247
235 233 233 234 240 236 235 233 234 234 233 231 232 235 241 237 237 236 240 243 243 243 243 245 245 244 239 241 244 242 244 243
234 233 231 232 235 240 239 236 235 232 232 232 234 231 235 239 237 238 236 238 242 243 242 244 245 245 245 241 243 241 241 244
233 232 233 231 232 237 239 238 235 233 233 232 232 234 231 232 237 237 238 236 234 239 240 242 242 241 240 240 239 239 240 241
231 229 231 234 233 233 236 236 238 235 234 232 231 230 231 231 232 237 239 238 236 235 237 240 243 242 239 238 238 241 243 243
234 230 227 230 232 234 234 236 234 233 232 232 232 234 231 237 236 235 236 239 238 238 236 238 241 241 240 237 236 239 242 242
236 234 228 227 230 233 235 237 240 237 235 235 233 233 233 237 241 242 240 239 239 238 238 235 236 240 241 239 237 235 236 240
239 236 232 229 229 230 233 237 239 241 240 241 238 236 236 237 240 245 246 245 244 242 240 238 234 236 239 240 239 238 237 238
241 244 241 235 230 230 232 234 237 240 241 241 243 241 238 239 241 243 245 247 247 244 242 240 236 234 236 239 238 237 238 239
241 242 244 239 234 229 231 233 237 239 240 242 242 244 244 242 242 245 248 249 248 244 242 241 238 234 234 236 237 240 236 238
238 243 244 239 236 230 228 230 233 235 236 240 242 243 244 246 247 248 249 249 247 245 244 241 240 236 234 234 232 235 238 236
245 249 248 243 239 236 230 226 228 231 233 234 237 239 241 242 244 247 249 249 247 245 246 244 241 240 235 234 235 232 237 238
Height
10684 10690 10697 10700 10707 10718 10723 10732 10742 10747 10748 10756 10765 10769 10772 10777 10783 10789 10794 10798 10802 10807 10811 10815 10818 10819 10821 10822 10823 10822 10822 10820
10668 10674 10682 10690 10700 10711 10715 10724 10731 10733 10734 10744 10750 10755 10760 10764 10774 10780 10786 10791 10794 10798 10802 10806 10811 10811 10813 10815 10815 10816 10816 10815
10653 10660 10669 10676 10682 10691 10705 10721 10721 10722 10723 10728 10736 10741 10750 10755 10761 10769 10775 10782 10787 10789 10793 10797 10802 10804 10805 10807 10808 10809 10810 10809
10635 10641 10652 10657 10665 10675 10684 10703 10709 10713 10717 10718 10725 10729 10734 10740 10749 10755 10762 10768 10774 10778 10782 10786 10790 10794 10797 10798 10799 10800 10803 10803
10614 10622 10632 10641 10651 10662 10674 10690 10696 10699 10704 10708 10716 10717 10720 10727 10734 10742 10748 10753 10760 10766 10771 10775 10778 10783 10787 10790 10791 10793 10795 10796
10598 10604 10614 10623 10636 10645 10656 10673 10685 10688 10689 10694 10702 10709 10710 10713 10720 10725 10733 10743 10748 10753 10759 10764 10768 10771 10777 10781 10782 10784 10786 10788
10590 10604 10612 10620 10632 10644 10655 10663 10672 10677 10681 10686 10692 10698 10704 10705 10708 10712 10721 10730 10735 10739 10746 10751 10757 10760 10764 10770 10774 10774 10776 10778
10575 10591 10603 10611 10622 10634 10643 10651 10664 10669 10672 10676 10682 10688 10694 10695 10696 10699 10706 10714 10720 10726 10733 10739 10744 10749 10752 10757 10763 10764 10766 10767
10550 10574 10590 10604 10609 10622 10628 10639 10643 10646 10656 10661 10667 10673 10678 10680 10684 10687 10692 10699 10704 10712 10717 10723 10729 10736 10740 10746 10751 10752 10755 10756
10524 10549 10569 10584 10595 10598 10612 10622 10624 10633 10637 10641 10646 10651 10658 10664 10669 10671 10678 10683 10689 10694 10702 10707 10714 10721 10727 10733 10737 10740 10744 10745
10504 10532 10546 10561 10573 10578 10587 10598 10606 10614 10618 10623 10628 10633 10638 10643 10649 10655 10658 10664 10674 10680 10687 10690 10698 10706 10713 10719 10723 10726 10730 10732
10481 10510 10527 10538 10548 10558 10564 10571 10578 10589 10595 10601 10605 10610 10618 10623 10631 10637 10641 10645 10656 10663 10670 10676 10681 10688 10696 10703 10708 10714 10716 10720
10456 10483 10503 10517 10527 10536 10542 10541 10549 10559 10569 10581 10591 10599 10605 10609 10616 10621 10626 10631 10638 10645 10653 10661 10666 10671 10678 10686 10693 10698 10703 10707
10430 10452 10478 10491 10506 10516 10521 10524 10529 10543 10555 10565 10576 10584 10591 10596 10601 10607 10613 10617 10622 10628 10635 10644 10651 10655 10662 10669 10675 10682 10688 10693
10413 10425 10450 10469 10484 10492 10500 10508 10514 10520 10536 10545 10556 10565 10571 10578 10583 10591 10597 10602 10607 10613 10620 10628 10635 10641 10648 10651 10657 10665 10671 10676
10399 10410 10427 10443 10458 10466 10475 10484 10492 10502 10514 10526 10534 10543 10552 10559 10564 10572 10578 10583 10589 10595 10601 10609 10616 10624 10630 10635 10640 10645 10652 10658
10389 10395 10405 10419 10433 10443 10449 10462 10471 10483 10492 10503 10512 10521 10530 10538 10546 10556 10560 10567 10570 10574 10582 10588 10596 10604 10610 10614 10621 10629 10635 10641
10380 10384 10390 10398 10404 10410 10422 10434 10445 10457 10468 10477 10487 10498 10508 10519 10529 10531 10539 10545 10548 10556 10561 10570 10576 10582 10588 10593 10601 10609 10615 10622
10371 10374 10377 10381 10385 10390 10399 10408 10416 10426 10439 10454 10463 10474 10486 10497 10507 10515 10521 10524 10531 10537 10542 10549 10557 10562 10566 10572 10577 10588 10597 10605